Location: Clausthal
(51.8000°N, 10.3333°E)
Time: 18:23:38
(UTC+00:00)

Daily predictions for brighter satellites

Satellite Brightness Start Highest point End
(mag) Time Altitude Azimuth Time Altitude Azimuth Time Altitude Azimuth
CZ-2C R/B 4.3 16:25:28 10° ESE 16:29:58 25° ENE 16:34:22 10° N
Cosmos 1452 Rocket 3.8 16:29:48 10° SSW 16:35:04 73° WNW 16:40:23 10° NNE
Cosmos 1943 Rocket 4.0 16:34:27 10° W 16:39:01 26° NW 16:43:36 10° NNE
Cosmos 1726 4.3 16:36:41 10° SW 16:39:57 28° WNW 16:43:15 10° N
Cosmos 2219 3.3 16:34:48 10° NNW 16:40:34 67° NE 16:46:18 10° SE
Cosmos 1455 4.2 16:40:44 10° E 16:40:48 10° E 16:40:52 10° E
YAOGAN 6 3.2 16:37:24 10° S 16:41:03 63° W 16:44:44 10° NNW
BREEZE-M R/B 3.3 16:44:03 10° WSW 16:47:20 69° S 16:53:42 10° E
Cosmos 2082 4.2 16:42:59 10° NNW 16:48:23 40° NE 16:53:47 10° ESE
COSMO-SKYMED 1 3.5 16:44:39 10° NE 16:48:24 28° E 16:52:08 10° SSE
H-2A R/B 2.3 16:44:29 10° NNE 16:48:40 72° WNW 16:52:45 10° SSW
ATLAS 5 CENTAUR R/B 3.2 16:45:22 10° W 16:49:15 29° NNW 16:53:42 10° NE
Feng Yun 1-1 Rocket 4.4 16:45:57 10° SSE 16:51:49 68° ENE 16:57:42 10° NNW
Cosmos 44 3.4 16:47:30 10° SSW 16:51:54 52° ESE 16:56:35 10° NE
Cosmos 2278 Rocket 4.5 16:50:01 10° NNW 16:51:55 12° N 16:53:49 10° N
NOSS 3-4 (A) 4.3 16:48:29 10° NW 16:54:44 41° NNE 17:01:08 12° E
NOSS 3-4 (C) 4.3 16:48:36 10° NW 16:54:50 41° NNE 17:01:12 12° E
Cosmos 1825 Rocket 4.0 16:52:02 10° NNW 16:56:29 68° W 17:00:52 10° S
H-2A R/B 3.1 16:52:22 10° ESE 16:56:53 27° ENE 17:01:25 10° N
Landsat 5 4.5 16:55:54 10° N 16:59:36 45° WNW 17:03:22 10° SW
ARGOS 4.3 16:55:29 10° ESE 16:59:41 23° NE 17:03:52 10° N
GENESIS II 4.2 16:56:10 10° SW 17:00:12 80° SE 17:04:16 10° NE
Cosmos 1656 4.2 16:57:23 10° S 17:02:25 36° ESE 17:07:33 10° NE
USA 307 2.9 16:59:16 10° WNW 17:03:36 89° S 17:07:25 13° ESE
CZ-4B R/B 4.2 16:58:28 10° S 17:03:55 53° W 17:09:18 10° NNW
Cosmos 1939 Rocket 2.8 17:00:25 10° SSE 17:04:18 59° ENE 17:08:10 10° N
YAOGAN 1 3.2 17:01:20 10° SE 17:05:14 34° ENE 17:09:10 10° N
GEOS 3 Rocket 4.1 17:00:24 10° ESE 17:05:29 47° NNE 17:10:39 10° NW
SeaSat 1 3.5 17:03:40 14° E 17:07:03 28° NE 17:11:12 10° NNW
Okean O Rocket 2.8 17:03:35 10° S 17:07:47 46° W 17:12:01 10° NNW
Cosmos 1408 3.4 17:05:09 10° N 17:08:26 30° ENE 17:11:42 10° SE
USA 308 2.9 17:04:12 10° WNW 17:08:31 86° SSW 17:12:09 14° ESE
Cosmos 1331 Rocket 4.0 17:04:34 10° SSW 17:09:44 87° WNW 17:14:56 10° NNE
USA 215 3.6 17:07:14 14° ENE 17:12:48 58° N 17:19:11 10° WNW
Cosmos 2227 Rocket 2.2 17:07:24 10° NNW 17:13:06 85° ENE 17:18:46 10° SSE
Cosmos 1892 2.8 17:10:35 10° N 17:14:24 52° ENE 17:18:12 10° SSE
Cosmos 1726 Rocket 3.5 17:10:14 10° S 17:14:36 88° ESE 17:19:02 10° N
Helios 1A Rocket 2.9 17:12:30 10° SSE 17:16:33 58° ENE 17:20:35 10° N
Cosmos 2263 Rocket 3.3 17:11:58 10° NNW 17:16:42 26° NE 17:19:27 18° ENE
ATLAS 2AS CENTAUR R/B 3.4 17:09:27 10° NW 17:16:51 44° NNE 17:22:01 18° E
CZ-4 R/B 4.4 17:12:48 10° SSE 17:16:56 65° ENE 17:21:05 10° N
Cosmos 2228 3.4 17:13:31 10° SSW 17:17:44 66° WNW 17:22:02 10° N
MOS 1 Rocket 4.4 17:14:15 10° NE 17:17:58 23° E 17:21:49 10° SE
CSL-04 Rocket 4.2 17:13:56 10° SE 17:19:02 39° ENE 17:24:07 10° N
Aureole 3 Rocket 3.4 17:14:57 10° S 17:19:09 64° E 17:25:03 10° NNE
Cosmos 1400 Rocket 2.8 17:15:27 10° S 17:19:30 63° E 17:23:33 10° NNE
Cosmos 292 Rocket 3.8 17:17:15 10° SSW 17:22:04 86° WNW 17:26:57 10° NNE
Cosmos 968 Rocket 3.4 17:17:21 10° NNW 17:22:38 82° ENE 17:27:49 10° SSE
IRS-1C Rocket 4.1 17:17:51 10° SSE 17:23:08 89° WSW 17:28:27 10° NNW
Cosmos 1553 Rocket 4.0 17:20:04 10° S 17:26:17 60° E 17:32:25 10° NNE
Cosmos 1300 3.2 17:24:05 10° SSW 17:27:53 63° WNW 17:31:41 10° N
FALCON 9 DEB 3.2 17:25:17 10° SW 17:28:26 53° SSE 17:29:34 33° E
HJ-1C 4.4 17:28:38 27° ENE 17:28:38 27° ENE 17:31:23 10° N
Cosmos 2151 4.1 17:25:07 10° NNE 17:28:26 23° ENE 17:28:26 23° ENE
Lacrosse 5 2.5 17:24:21 10° WNW 17:29:15 46° N 17:32:14 22° ENE
CZ-4 R/B 1.2 17:26:32 10° SSE 17:30:21 63° ENE 17:34:11 10° N
Cosmos 1606 Rocket 4.4 17:26:26 10° SSW 17:30:43 53° WNW 17:35:05 10° N
Cosmos 1697 Rocket 3.3 17:26:19 10° S 17:31:18 34° ESE 17:34:44 18° NE
Cosmos 2058 2.9 17:27:23 10° N 17:31:27 58° ENE 17:35:30 10° SSE
FALCON 9 DEB 3.1 17:28:23 10° SW 17:31:32 57° SSE 17:32:31 37° E
Cosmos 1825 2.6 17:29:16 10° N 17:32:50 37° ENE 17:34:21 25° ESE
PSLV R/B 4.0 17:28:41 10° NNE 17:32:50 58° ESE 17:36:55 10° S
SAR-Lupe-4 3.5 17:29:34 10° NNE 17:33:10 89° WNW 17:36:45 10° SSW
Meteor 2-1 Rocket 4.4 17:30:33 10° SSE 17:35:43 44° E 17:40:57 10° NNE
ERBS 3.4 17:33:23 10° WNW 17:36:27 33° N 17:37:25 27° NE
SKYMED 2 3.5 17:32:20 10° NNE 17:36:43 77° ESE 17:41:04 10° S
ERS-2 3.2 17:33:33 10° N 17:37:04 46° WNW 17:40:34 10° SW
Timation 1 Rocket 4.4 17:31:07 10° NNW 17:37:06 59° NE 17:41:44 17° SE
CZ-2D R/B 3.2 17:34:38 10° SSE 17:38:27 82° WSW 17:42:17 10° NNW
Meteor 2-15 4.4 17:32:32 10° S 17:38:33 58° E 17:44:33 10° NNE
ADEOS Rocket 4.4 17:32:57 10° N 17:38:51 43° WNW 17:45:20 10° SW
FALCON 9 DEB 3.0 17:36:24 10° WNW 17:39:51 89° NE 17:40:54 42° ESE
Cosmos 1346 Rocket 2.7 17:37:12 10° N 17:41:14 79° ENE 17:45:13 10° SSE
SL-4 R/B 1.7 17:37:52 10° W 17:41:26 77° S 17:42:47 37° ESE
Cosmos 1302 Rocket 4.0 17:36:15 10° SSW 17:41:32 88° WNW 17:46:53 10° NNE
Okean-O 2.6 17:38:34 10° SSE 17:43:00 89° SW 17:47:30 10° NNW
Cosmos 220 Rocket 4.3 17:39:01 10° S 17:43:10 43° ESE 17:45:07 27° NE
Cosmos 1340 3.7 17:41:03 10° NNW 17:44:42 47° W 17:48:20 10° S
FALCON 9 DEB 3.0 17:41:40 10° WSW 17:44:53 65° SSE 17:45:25 53° ESE
Cosmos 1486 Rocket 4.5 17:42:21 10° NNW 17:47:39 65° WSW 17:52:54 10° S
Cosmos 1745 Rocket 3.9 17:42:53 10° N 17:49:13 83° E 17:55:34 10° SSE
Cosmos 1689 Rocket 2.3 17:49:15 13° N 17:51:47 66° WNW 17:54:39 10° SSW
Cosmos 1315 Rocket 2.9 17:48:08 10° S 17:51:58 50° E 17:54:02 25° NNE
Cosmos 2297 Rocket 3.3 17:47:16 10° NW 17:52:39 45° WSW 17:57:59 10° S
USA 305 3.4 17:49:32 10° WNW 17:53:46 55° SSW 17:55:45 28° SE
SL-08 RB Rocket 4.3 17:54:21 35° ENE 17:54:21 35° ENE 17:58:25 10° N
CZ-4B R/B 3.4 17:51:38 10° N 17:54:27 27° WNW 17:57:12 10° SW
Cosmos 1980 Rocket 3.1 17:49:47 10° SSE 17:53:26 26° SE 17:53:26 26° SE
FALCON 9 DEB 2.8 17:52:15 10° WSW 17:55:27 75° SSE 17:55:34 74° SE
Cosmos 1503 Rocket 4.0 17:52:28 10° NNW 17:57:44 86° WSW 18:02:59 10° SSE
USA 306 3.5 17:56:02 10° WNW 18:00:12 51° SSW 18:01:57 30° SSE
CSL-04 Debris 4.1 17:55:12 10° SSE 18:00:39 79° ENE 18:06:10 10° NNW
Aureole 3 4.2 17:58:47 10° SW 18:01:38 36° WNW 18:04:27 10° N
Cosmos 2058 Rocket 4.1 18:02:06 10° SSW 18:06:27 47° WNW 18:10:50 10° N
Cosmos 2227 4.5 18:02:36 10° NNW 18:08:03 47° NE 18:09:08 42° E
CZ-2C R/B 3.5 18:03:36 10° S 18:09:22 74° WSW 18:14:59 10° NNW
Cosmos 1354 Rocket 4.1 18:04:38 10° NNW 18:09:55 79° WSW 18:14:14 15° SSE
Cosmos 2360 4.3 18:08:30 10° S 18:14:02 53° ESE 18:15:33 42° ENE
COSMOS 2455 4.4 18:09:45 10° NNW 18:14:19 22° NNE 18:15:51 20° NE
CZ-4C R/B 3.2 18:08:07 10° NW 18:14:30 47° NNE 18:17:00 35° ENE
Cosmos 1455 2.1 18:11:56 10° S 18:15:44 86° W 18:17:16 35° N
Cosmos 1709 Rocket 3.9 18:12:26 10° N 18:18:52 80° E 18:25:16 10° SSE
Cosmos 1992 Rocket 3.8 18:14:05 10° SSW 18:19:18 83° ESE 18:22:43 22° NNE
Cosmos 1076 Rocket 3.9 18:16:20 10° NNW 18:20:34 63° W 18:24:46 10° S
SJ 16-02 3.3 18:17:22 10° N 18:18:55 17° NNE 18:18:55 17° NNE
Meteor 2-10 Rocket 3.6 18:16:16 10° SSW 18:21:32 76° WNW 18:26:39 10° N
COSMO-SKYMED 1 3.9 18:20:37 10° N 18:24:41 39° WNW 18:28:44 10° SW
Cosmos 2278 4.0 18:20:22 10° S 18:24:51 44° SE 18:24:51 44° SE
Meteor 2-3 Rocket 3.8 18:21:11 10° N 18:26:50 55° ENE 18:27:07 54° E
Meteor 2-17 Rocket 4.5 18:21:24 10° N 18:27:20 53° ENE 18:27:43 52° E
Geosat 3.9 18:29:49 66° ESE 18:29:57 67° ESE 18:34:57 10° SSW
Ariane Rocket 3.2 18:30:47 51° NE 18:30:47 51° NE 18:35:12 10° N
Cosmos 2074 Rocket 4.3 18:26:49 10° N 18:32:12 44° NE 18:32:12 44° NE
Cosmos 44 4.5 18:29:00 10° WSW 18:33:20 37° NNW 18:35:30 25° NNE
ATLAS 5 CENTAUR R/B 3.6 18:31:32 10° NW 18:35:22 23° N 18:36:16 22° NNE
H-2A R/B 2.6 18:30:34 10° S 18:35:56 62° W 18:41:23 10° NNW
Cosmos 883 Rocket 4.3 18:30:35 10° S 18:36:45 86° E 18:42:54 10° N
Cosmos 2278 Rocket 4.3 18:36:15 10° N 18:38:46 13° NNE 18:39:18 13° NNE
ARGOS 3.3 18:36:01 24° S 18:39:26 75° WSW 18:44:54 10° NNW
YAOGAN 1 4.3 18:37:28 10° SSW 18:41:21 32° W 18:45:16 10° NNW
S3M 4.5 18:36:35 10° SSW 18:42:36 59° WNW 18:48:45 10° N
USA 307 4.3 18:39:34 10° W 18:43:19 30° SW 18:43:36 29° SSW
GEOS 3 Rocket 4.2 18:41:32 36° S 18:43:28 55° SW 18:48:47 10° NW
Cosmos 2315 Rocket 3.8 18:37:58 10° S 18:44:10 81° E 18:50:23 10° NNE
SeaSat 1 2.6 18:43:27 60° S 18:44:13 72° WSW 18:49:11 10° NW
Resurs 01 Rocket 4.1 18:48:03 12° N 18:48:03 12° N 18:48:23 10° N
Cosmos 1656 4.5 18:40:32 10° SW 18:45:57 49° NW 18:50:24 16° NNE
NOSS 3-4 (A) 3.8 18:39:26 10° NW 18:46:20 84° SW 18:48:36 49° SE
NOSS 3-4 (C) 3.8 18:39:32 10° NW 18:46:26 85° SW 18:48:40 49° SE
USA 308 4.5 18:44:32 10° W 18:48:13 28° SW 18:48:20 28° SW
Cosmos 1812 Rocket 4.1 18:44:35 10° SSW 18:48:54 55° WNW 18:53:14 10° N
Cosmos 1844 Rocket 4.0 18:44:43 10° NNW 18:48:28 27° NNE 18:48:28 27° NNE
Cosmos 2369 3.7 18:44:07 10° SSW 18:49:50 84° WNW 18:51:18 53° NNE
DEBRIS 4.1 18:36:05 10° WSW 18:51:20 62° S 18:51:52 60° SE
USA 215 3.1 18:54:35 66° E 18:55:35 82° NNE 19:02:09 10° WNW
MOS 1 Rocket 3.9 18:51:57 10° N 18:56:31 56° WNW 19:01:19 10° SSW
NOSS 3-3 (A) 3.9 18:51:48 10° SW 18:57:48 85° NW 18:59:03 61° NE
NOSS 3-3 (C) 3.9 18:51:55 10° SW 18:57:54 86° NW 18:59:06 62° NE
Cosmos 2263 Rocket 2.1 18:55:37 10° NNW 19:01:09 83° WNW 19:01:09 83° WNW
CZ-4 R/B 4.3 19:03:37 10° SW 19:05:48 14° W 19:07:59 10° NW
Cosmos 2151 4.3 19:02:00 10° NNW 19:05:02 37° WNW 19:05:02 37° WNW
ATLAS 2AS CENTAUR R/B 2.7 19:00:53 10° NW 19:08:29 80° SW 19:09:28 68° SSE
Lacrosse 5 2.6 19:07:41 10° WNW 19:11:26 48° NW 19:11:26 48° NW
Cosmos 1697 Rocket 3.3 19:09:35 10° SW 19:15:04 52° NW 19:16:32 41° N
Cosmos 1980 Rocket 3.7 19:32:35 10° SW 19:35:17 29° SW 19:35:17 29° SW
SJ 16-02 4.2 19:55:24 10° NNW 19:55:54 13° NNW 19:55:54 13° NNW
COSMOS 2455 4.4 19:55:54 10° NNW 19:58:59 29° NNW 19:58:59 29° NNW
CZ-4C R/B 3.3 19:56:36 10° NW 20:02:11 59° WNW 20:02:11 59° WNW
ATLAS 5 CENTAUR R/B 4.4 20:16:28 10° NW 20:17:47 17° NNW 20:17:47 17° NNW
